Theta_e
318 319 320 320 319 318 318 317 317 317 316 316 316 316 313 309 309 311 312 314 315 316 317 318 319 319 319 317 314 312 310 308 308 311 314 315 316 320 321 320 321 322 324 324 324 325 324 325 324 322 320 321 326 328 328 329 331 334 333 332 333 333 335 335 335 334 331 331 334 333 332 331 330 327 326 326 326 325 326 327 329 330 330 330 331
319 320 320 320 319 318 318 318 318 318 317 316 316 316 313 309 309 311 313 316 317 317 318 318 319 319 317 316 314 311 308 306 307 309 311 311 312 316 319 318 317 317 318 319 319 320 321 324 325 325 325 326 329 330 330 329 329 331 331 330 332 334 335 336 336 334 331 331 333 333 333 333 331 328 327 326 325 326 326 326 327 329 330 330 330
322 323 321 320 319 318 318 318 318 317 317 316 316 316 314 312 309 311 313 316 318 318 318 319 318 315 314 313 312 311 309 309 310 312 314 314 313 314 316 317 316 315 316 318 320 320 321 323 324 324 325 326 327 329 330 331 331 331 331 331 332 333 335 335 335 335 332 332 332 332 335 334 332 329 328 327 326 325 326 325 325 327 329 329 330
323 324 322 320 319 319 318 318 318 317 317 317 317 316 316 314 310 312 314 315 318 319 319 320 316 312 311 311 311 311 311 312 313 314 315 315 315 315 315 316 315 313 315 318 320 320 320 321 322 323 324 324 325 326 327 328 329 330 331 332 333 333 333 331 332 334 332 332 333 333 333 333 334 331 328 328 327 326 325 324 325 327 327 328 329
322 323 323 321 320 319 318 318 317 317 317 317 317 316 316 315 311 311 314 316 319 318 317 316 314 312 312 312 313 313 314 315 315 315 315 315 315 315 316 315 313 314 315 317 318 319 319 320 320 321 323 323 323 324 325 325 325 327 328 330 331 332 333 331 331 333 332 332 333 334 333 334 338 334 329 329 328 327 326 324 324 327 327 327 328
321 323 323 321 320 319 318 318 317 317 317 317 317 316 316 315 312 311 313 316 318 316 314 313 312 312 313 314 315 315 316 315 314 314 314 315 315 314 314 313 314 315 316 316 316 318 319 319 319 319 321 322 323 323 323 323 324 325 326 327 329 331 333 332 333 333 332 331 331 333 332 332 335 333 332 334 331 329 329 328 327 327 328 328 328
321 322 322 321 320 319 318 318 317 317 317 317 317 317 316 316 314 312 313 316 317 315 313 312 312 312 311 313 314 314 315 313 311 312 313 312 312 312 312 314 316 317 317 317 318 318 319 318 318 318 319 320 321 322 322 322 322 323 324 325 326 328 330 331 332 332 332 332 331 331 331 330 330 330 333 336 336 335 332 330 330 329 328 328 328
320 322 323 322 321 320 319 319 318 317 317 317 316 316 317 316 316 315 315 316 317 316 314 314 313 311 310 313 313 314 313 310 310 310 309 309 309 311 311 314 318 318 318 318 318 318 319 318 318 317 317 318 319 320 321 321 322 322 323 323 324 325 326 327 328 329 331 332 332 331 331 331 330 330 332 333 336 339 335 331 331 330 329 329 329
319 321 323 322 321 320 320 320 318 318 317 317 317 316 316 317 317 317 317 317 317 317 316 315 315 311 311 313 314 315 313 308 308 308 307 307 309 312 313 314 317 319 319 319 318 317 316 315 314 313 314 315 316 317 318 319 320 321 321 321 322 322 323 325 326 327 328 328 329 329 331 332 332 332 334 332 332 334 336 335 331 329 330 330 330
318 320 321 321 321 321 321 320 319 319 318 317 317 317 317 318 318 319 319 318 317 317 316 316 316 312 313 315 315 315 312 307 308 309 306 306 308 312 314 314 315 317 318 319 318 315 311 308 307 307 308 308 309 311 313 317 319 319 319 320 320 321 321 322 323 324 325 327 328 329 330 332 332 333 333 332 330 330 332 334 329 328 330 329 329
317 319 320 320 321 321 321 321 321 320 319 318 319 318 318 318 319 320 320 319 318 318 316 317 316 313 315 318 317 317 313 308 309 310 308 308 308 309 313 315 315 315 315 316 315 312 308 306 305 304 305 305 306 307 310 314 317 317 318 318 318 319 319 320 321 321 322 324 326 328 329 330 330 331 331 331 330 329 330 331 329 328 329 328 328
317 319 321 321 321 322 321 321 322 321 321 320 320 320 319 319 320 321 321 321 320 319 317 317 316 314 316 318 316 315 314 310 311 312 310 309 308 309 313 315 316 315 313 312 313 312 310 309 306 305 305 305 306 306 307 310 312 314 315 315 315 316 316 317 318 319 320 320 322 323 326 328 329 330 330 329 330 330 329 328 328 329 329 328 328
317 320 321 321 322 322 321 321 322 322 322 321 321 321 321 320 321 322 322 321 320 320 319 318 316 314 317 318 314 312 313 312 311 312 311 310 309 310 313 315 315 315 314 312 313 314 313 311 308 306 306 306 306 306 307 308 308 310 311 312 313 314 315 315 316 317 318 318 319 319 321 324 327 328 329 329 329 329 329 328 328 328 329 328 328
317 319 321 322 321 320 320 321 322 322 323 322 322 322 321 321 321 322 322 322 321 320 319 319 318 316 317 317 314 312 312 312 312 312 312 311 310 310 312 313 313 314 314 313 313 315 314 312 309 308 308 307 307 307 307 308 308 309 310 311 312 313 314 314 315 315 316 316 317 318 319 321 323 326 328 329 329 328 328 328 328 328 328 328 328
317 318 321 322 320 320 321 321 322 323 323 323 322 322 321 321 321 322 322 322 321 321 320 319 319 317 316 316 315 314 314 314 313 313 312 311 311 311 310 311 312 313 314 313 314 314 313 312 311 311 310 309 308 308 308 308 308 308 308 309 311 311 312 313 313 314 314 314 315 316 317 318 320 322 325 327 328 327 327 328 328 328 329 329 328
316 318 321 322 319 319 321 321 322 323 323 323 322 322 322 321 321 322 322 322 321 321 320 320 320 318 317 317 317 315 315 314 313 313 312 311 311 311 310 311 312 312 313 313 313 313 312 312 312 312 311 310 308 309 310 310 309 308 308 308 309 309 310 310 311 312 312 312 313 314 315 316 317 319 320 323 326 327 328 328 328 327 329 331 330
316 317 319 322 321 319 320 320 322 323 323 323 323 322 322 322 321 321 321 322 321 321 321 320 320 318 317 318 317 316 315 314 314 312 312 313 313 312 311 312 312 312 312 312 312 312 312 312 312 312 311 309 309 309 309 309 308 308 308 308 308 308 308 309 309 309 310 310 310 311 312 314 315 316 318 320 322 325 327 328 328 326 327 329 330
318 318 317 320 319 319 320 320 321 323 323 324 323 322 322 322 322 322 321 322 321 322 321 320 320 319 317 317 317 316 315 314 314 313 312 313 313 312 312 312 312 311 312 312 312 312 312 312 313 312 310 309 310 309 308 307 306 306 307 307 308 308 307 308 308 308 308 308 308 309 310 311 312 313 315 316 318 320 323 326 328 328 326 327 328
320 321 321 323 320 317 319 320 320 321 322 324 323 322 322 322 322 322 321 322 321 321 322 320 321 319 318 317 316 316 315 314 315 314 313 313 313 312 312 312 312 312 312 312 312 312 312 312 312 310 309 309 310 309 307 306 305 304 305 305 306 306 306 306 306 306 307 307 307 307 307 308 309 310 312 313 315 316 317 320 324 327 328 328 327
316 317 321 325 320 316 318 318 320 321 321 323 323 322 322 322 322 322 321 321 322 321 321 320 320 320 319 317 316 315 315 315 315 314 313 313 312 312 312 312 312 312 312 311 312 312 312 311 310 309 309 309 308 308 306 306 305 305 305 305 305 305 305 305 305 305 305 305 305 305 306 306 307 307 308 310 312 313 315 316 318 322 325 327 327
312 312 317 321 317 316 318 318 318 321 321 322 323 323 322 322 322 322 321 322 321 321 321 321 321 320 319 318 317 316 316 316 316 315 313 312 312 312 312 311 310 310 310 311 312 311 309 308 309 309 309 308 308 307 306 305 305 305 305 305 305 305 305 305 305 304 304 304 304 304 305 305 305 305 306 307 308 310 312 313 314 317 321 324 327
311 312 316 318 315 314 318 318 318 319 320 321 323 323 323 322 322 322 322 322 322 321 321 321 320 320 319 318 318 317 316 316 316 314 313 312 312 312 312 310 308 308 309 310 310 308 307 307 308 308 308 307 307 306 305 305 305 305 305 305 305 305 305 305 305 304 304 303 304 304 304 304 305 305 305 305 306 307 309 310 312 314 316 320 324
309 309 311 312 312 312 316 317 317 318 319 320 322 323 323 323 322 322 322 322 322 322 321 321 321 320 319 319 318 318 316 316 315 314 313 312 312 312 311 310 308 308 309 309 308 307 307 308 308 308 307 306 306 305 305 305 304 304 304 304 304 304 304 304 304 304 304 304 304 304 304 304 304 305 305 305 305 305 306 308 309 311 313 316 320
307 307 307 306 308 310 312 314 316 318 319 320 321 322 324 324 323 322 322 322 322 322 321 321 320 320 319 319 318 318 316 315 314 313 312 312 312 312 311 309 308 308 308 308 307 307 308 308 308 307 306 306 305 304 304 303 303 303 303 303 303 303 303 303 303 303 303 304 304 304 304 304 304 304 304 305 305 305 305 306 308 309 311 313 316
306 307 307 306 308 309 309 311 314 316 318 319 320 322 322 323 323 323 322 322 322 322 322 321 321 320 319 319 319 318 316 315 314 313 312 311 312 311 310 308 308 308 308 308 308 308 308 308 307 306 305 305 304 304 303 303 303 303 302 302 302 302 302 302 302 303 303 303 303 303 303 304 304 304 304 304 305 305 305 305 306 307 309 310 313
307 308 308 308 309 309 308 310 312 314 315 317 318 320 321 322 323 323 323 322 321 321 321 321 321 320 319 319 318 317 316 315 314 313 312 311 311 310 309 308 308 309 309 309 309 308 308 307 306 305 305 304 303 303 303 303 302 302 302 302 302 302 302 302 302 302 302 302 303 303 303 303 303 303 304 304 304 304 304 304 305 306 307 309 311
308 308 308 309 310 310 308 309 311 312 314 315 317 319 319 321 322 322 323 322 322 322 321 320 320 320 319 318 318 318 317 316 314 313 312 311 311 310 309 309 309 310 309 309 308 308 307 306 305 304 303 303 303 302 302 302 301 301 301 301 301 301 301 302 302 302 302 302 303 302 303 303 303 303 303 303 303 304 304 304 304 305 306 307 309
308 308 309 309 310 310 309 308 310 312 313 314 316 319 319 320 321 321 322 322 321 322 321 320 319 319 319 318 318 317 317 316 315 313 312 312 311 310 310 310 310 310 309 309 308 307 306 305 304 303 303 302 302 302 301 301 301 300 300 300 300 300 300 300 301 301 301 302 302 302 302 303 303 303 303 303 304 304 304 304 304 304 305 306 306
308 308 309 309 309 310 309 308 310 311 312 312 314 316 319 320 320 320 321 321 321 322 321 320 319 319 318 317 317 317 316 315 314 313 312 312 311 311 310 310 310 310 309 308 307 306 305 304 303 302 302 302 301 301 301 301 300 299 299 298 298 298 298 298 299 299 299 300 300 300 301 301 302 302 302 302 303 303 303 304 304 304 304 305 305
308 308 308 308 309 309 307 307 309 309 310 311 312 313 316 319 320 320 320 320 321 321 321 319 319 318 318 317 316 316 316 315 314 313 312 312 311 311 310 310 310 309 308 307 306 305 303 302 302 302 302 301 301 300 300 299 299 298 298 298 298 298 298 298 298 298 298 298 298 299 299 300 300 300 301 301 301 301 302 302 302 303 304 304 305
307 306 307 308 308 307 306 306 308 308 309 309 310 312 313 316 319 320 319 319 320 321 321 319 318 319 319 317 316 316 316 315 314 313 312 312 311 310 310 309 309 308 307 306 305 304 303 302 302 301 301 300 300 299 299 298 298 298 298 298 298 298 298 298 298 298 297 298 298 298 298 298 298 299 299 300 300 301 301 301 301 302 302 303 304
306 306 306 307 307 308 306 306 307 308 309 309 310 311 312 314 317 318 319 318 318 319 319 319 318 318 318 317 316 316 315 314 314 313 312 311 311 310 310 309 308 307 307 306 304 303 302 302 301 300 299 299 299 298 298 298 298 298 298 298 298 298 298 297 298 297 297 297 297 297 297 297 297 297 297 298 298 299 300 301 301 302 302 302 303
306 306 306 306 306 306 306 306 307 308 310 310 310 310 311 313 315 317 318 318 317 317 317 317 316 316 316 316 316 315 314 314 314 313 312 311 310 310 309 308 308 307 306 305 303 302 301 300 299 298 298 298 297 297 297 297 297 297 297 297 297 297 297 297 297 297 297 297 297 296 296 296 296 296 296 297 297 297 298 299 300 301 301 302 302
306 305 306 305 305 305 305 306 307 308 309 309 309 309 310 312 315 317 318 317 316 316 315 315 315 315 315 315 315 315 314 314 313 312 311 310 309 309 308 308 307 306 305 304 302 301 299 298 298 297 297 296 296 296 296 296 296 296 296 297 297 297 297 297 297 296 296 296 296 296 296 296 296 296 296 296 296 296 297 298 299 300 301 301 302
305 306 306 305 304 305 305 306 306 307 307 308 308 309 309 311 315 317 317 315 314 314 314 314 314 314 314 314 314 314 314 313 312 311 310 309 308 308 308 308 306 305 304 302 301 299 298 297 297 296 295 294 294 294 294 294 294 295 295 295 296 296 296 296 296 296 296 296 295 295 295 295 295 295 295 295 295 296 296 297 297 298 299 300 301
304 304 304 303 304 305 305 305 306 305 305 306 307 308 309 310 314 316 316 315 313 313 313 313 313 313 313 313 313 314 314 312 311 310 309 308 308 308 308 307 305 304 302 301 300 299 297 296 295 294 293 293 293 293 293 293 293 293 294 294 294 294 295 295 295 295 295 295 295 295 295 295 295 294 294 295 295 295 295 296 297 297 298 298 299
302 302 303 303 304 305 304 305 305 304 304 305 306 307 309 310 312 314 315 314 313 312 312 312 312 312 311 312 313 313 312 311 310 309 308 308 308 308 307 306 304 303 301 300 299 298 297 296 294 293 292 292 292 292 292 293 293 293 293 293 293 293 294 294 294 294 294 294 295 294 294 294 294 294 294 294 294 294 295 295 296 297 297 298 298
301 301 302 303 304 304 304 304 304 304 304 305 306 308 310 311 312 313 314 314 312 311 311 311 312 312 311 312 313 312 311 310 308 308 307 308 308 307 306 305 303 302 301 299 298 297 296 295 293 292 292 292 292 292 292 292 292 292 292 292 292 293 293 293 293 294 294 294 294 294 294 294 294 294 294 294 294 294 294 295 296 296 297 298 299
302 301 302 303 303 303 303 303 303 304 305 306 307 308 309 310 311 312 312 312 311 310 310 311 311 311 311 312 311 311 310 308 307 307 307 307 307 306 305 304 302 302 300 299 298 297 295 293 293 292 291 291 292 292 292 292 292 292 292 292 292 292 292 292 293 293 293 293 293 293 293 293 293 293 293 293 293 293 294 294 295 295 297 298 298
302 302 302 303 303 303 303 303 303 304 306 307 307 308 309 310 311 312 311 311 311 311 310 310 310 310 310 311 310 310 309 307 307 307 307 306 305 303 303 302 301 300 299 299 298 297 295 293 293 291 290 290 291 291 291 292 291 291 291 291 291 291 291 292 292 292 292 292 292 292 292 292 293 293 293 293 293 293 293 294 294 295 296 297 297
301 302 302 302 302 303 303 303 303 304 305 307 307 308 309 310 310 311 310 310 311 310 310 309 310 310 310 310 309 308 307 306 306 306 304 303 302 301 301 301 301 300 300 299 298 297 295 294 292 291 290 290 290 291 291 291 291 291 291 291 291 291 291 291 291 291 291 291 291 291 291 291 292 292 292 292 292 292 293 293 294 294 295 295 296
301 301 301 302 302 302 303 303 303 303 304 306 307 308 310 310 310 310 310 310 310 310 310 310 309 309 309 309 308 307 305 305 304 303 302 301 301 301 301 301 301 301 300 299 298 297 296 294 292 290 290 290 290 291 291 291 291 291 291 291 290 290 290 290 290 290 290 290 290 291 291 291 291 291 291 291 291 292 292 292 293 294 295 295 296
300 300 301 301 302 302 303 303 303 303 305 306 307 309 309 309 310 310 309 309 310 309 309 309 308 309 308 307 305 304 303 302 301 301 301 301 301 301 301 301 301 301 300 299 297 297 296 294 291 290 290 290 290 290 291 291 291 291 290 290 290 290 290 289 290 290 290 290 290 290 290 290 290 290 291 291 291 291 291 292 292 293 293 295 295
300 300 300 301 302 303 303 303 303 305 306 307 308 308 308 308 309 308 308 308 308 308 307 307 307 307 305 303 302 301 301 301 300 300 300 300 300 300 300 300 301 300 299 298 297 296 295 293 291 290 290 290 290 290 290 291 291 291 290 290 290 290 289 289 289 289 289 289 289 289 290 290 290 290 290 290 291 291 291 291 292 292 292 294 295
299 299 300 301 302 303 303 304 305 306 307 308 308 308 308 308 308 307 307 307 306 306 306 306 305 303 302 301 301 300 300 300 300 300 300 299 299 300 300 300 300 300 299 297 296 296 294 292 290 290 290 290 290 290 290 290 291 290 290 290 289 289 289 289 289 289 289 289 289 289 289 289 289 290 290 290 290 290 290 290 291 291 292 293 294
300 300 301 302 302 303 304 305 305 306 306 306 307 307 308 308 307 306 306 306 306 306 306 304 302 301 301 301 300 300 300 300 299 299 299 299 299 299 299 299 299 299 298 297 296 295 293 291 291 291 290 290 290 290 290 290 290 290 290 290 289 289 289 288 288 288 289 289 289 289 289 290 290 290 290 290 290 290 290 290 291 291 291 292 294
301 302 303 303 304 305 306 305 304 305 305 305 306 307 307 306 305 305 305 305 305 304 303 302 301 301 301 300 300 300 299 299 299 299 299 299 299 298 298 298 298 298 297 296 296 295 293 291 291 291 290 290 290 290 290 290 290 290 290 289 289 289 288 288 288 288 289 289 289 289 290 290 290 290 290 290 290 291 291 291 291 291 291 292 293
302 303 304 304 305 306 306 306 305 305 305 304 306 307 306 305 305 305 305 305 303 303 302 301 301 301 300 300 300 300 299 299 299 299 299 299 299 298 298 298 297 297 296 295 295 294 293 291 291 291 290 291 291 290 290 290 290 290 289 289 289 289 289 288 288 288 289 289 289 289 290 290 290 290 291 291 291 291 291 291 291 291 292 292 293
302 303 304 305 306 306 306 306 307 306 305 306 307 307 307 305 304 305 305 303 302 302 301 301 300 300 300 300 300 299 299 299 299 299 298 298 298 298 297 297 296 296 295 295 294 294 293 292 292 291 291 291 291 290 290 290 290 290 289 289 289 289 288 288 288 288 289 289 289 289 290 290 291 291 291 291 291 291 291 291 291 291 292 293 294
303 304 305 306 306 306 306 307 307 307 307 307 306 306 306 305 304 304 303 302 302 301 300 300 300 300 300 300 300 299 299 299 299 299 298 298 298 297 297 296 296 295 295 295 294 294 293 292 292 291 291 291 290 290 290 290 290 289 289 289 288 288 288 288 288 289 289 289 289 290 290 291 291 292 292 292 292 292 292 292 292 292 292 293 294
304 305 305 305 305 306 306 306 307 306 306 306 306 305 305 304 303 303 303 302 301 301 300 300 301 300 300 300 300 299 299 299 299 298 298 298 298 297 297 296 295 294 294 294 294 294 293 293 292 292 291 291 290 290 290 290 289 289 289 288 288 288 288 288 289 289 289 289 290 290 291 291 292 293 293 293 293 293 293 292 293 293 293 293 294
Wind_Speed
15 22 27 29 33 34 33 33 33 30 28 28 28 26 25 26 25 23 23 21 20 19 17 15 14 13 13 13 11 10 8 7 6 6 5 4 3 4 4 3 3 3 3 2 1 1 1 1 1 2 3 1 1 2 5 10 13 15 17 14 13 17 18 17 16 11 9 11 13 14 18 20 21 20 21 22 23 23 22 22 23 22 21 21 21
10 14 19 23 26 28 29 32 34 33 32 31 30 29 27 27 26 24 24 23 21 19 17 16 15 14 16 16 13 11 9 8 8 7 5 4 4 5 3 2 2 2 1 1 2 1 2 3 4 4 2 3 3 1 2 5 8 12 15 14 11 15 17 17 18 15 10 8 7 6 11 18 22 23 22 22 23 24 24 23 23 24 24 23 22
8 9 12 18 22 25 27 31 34 35 35 33 32 30 29 28 26 25 25 24 22 20 17 16 15 16 18 16 14 12 10 8 8 7 5 4 5 5 4 3 2 1 2 3 4 3 3 3 3 5 5 5 4 3 3 3 4 6 9 11 13 14 13 13 18 19 14 8 3 2 4 7 12 17 21 24 25 25 26 25 24 25 25 24 24
10 10 11 16 20 22 26 29 31 32 34 34 33 32 31 30 28 26 25 24 22 19 17 17 17 18 18 15 13 13 10 8 8 7 5 3 4 4 3 2 1 2 4 5 5 4 2 2 1 2 4 5 5 4 5 5 5 6 7 7 10 14 12 10 13 19 19 11 4 1 1 1 4 8 15 23 26 25 26 27 26 26 26 25 25
13 13 12 14 18 23 27 29 30 31 34 35 35 35 34 32 30 27 25 23 21 19 19 20 20 20 19 16 14 13 11 9 9 8 7 5 4 3 3 1 1 3 4 4 3 3 2 1 0 1 1 2 4 4 5 5 5 6 7 7 7 9 10 10 13 18 22 18 11 4 1 0 3 3 7 15 23 25 27 29 28 27 27 27 27
14 16 14 15 20 24 26 28 29 31 34 37 38 37 35 34 31 28 25 23 21 21 23 23 22 21 20 19 16 15 14 11 10 10 9 7 5 4 2 2 3 4 4 4 2 2 2 1 0 1 1 0 1 3 3 3 3 5 6 7 7 8 8 8 10 14 18 19 17 13 7 3 4 1 1 4 11 18 23 27 29 30 29 28 29
11 14 15 16 19 22 23 27 30 32 36 38 37 36 35 35 32 29 26 24 23 24 24 23 21 19 19 19 19 19 17 13 11 10 9 8 6 4 3 4 4 5 5 5 4 2 2 1 0 1 1 1 0 0 1 2 3 4 5 6 7 7 7 7 8 9 12 14 15 17 16 12 9 5 3 1 2 7 14 19 24 28 29 30 30
11 13 15 17 20 23 25 29 33 35 35 35 35 36 36 35 33 30 28 26 25 25 24 22 20 19 18 19 20 19 17 15 13 11 9 8 7 5 4 4 4 4 6 6 4 2 2 1 1 1 1 0 1 1 1 3 3 3 3 5 6 7 7 7 8 8 8 10 12 15 17 17 17 14 10 5 2 2 6 10 14 17 21 25 28
12 15 17 18 22 27 30 32 34 33 33 36 38 37 36 35 34 31 30 29 27 26 24 22 20 19 19 20 20 19 17 16 14 12 10 8 8 7 6 4 4 5 5 4 4 2 1 0 0 1 1 1 1 2 3 4 4 4 4 5 5 6 6 6 7 8 7 9 10 13 15 16 18 19 16 12 6 4 3 4 7 9 11 16 21
10 13 15 19 26 31 32 32 32 32 34 37 37 35 35 35 34 33 33 31 29 26 25 23 21 20 20 21 21 20 19 17 15 14 12 9 8 8 7 6 5 5 5 4 3 1 2 3 3 4 4 3 3 3 2 3 4 4 5 6 6 6 6 6 6 7 8 10 11 12 13 13 13 12 14 15 10 8 7 6 8 9 7 10 13
8 10 12 19 27 29 29 29 30 31 32 32 31 32 34 35 35 35 34 33 30 27 26 25 23 21 22 22 21 22 22 20 18 17 14 12 10 9 8 8 6 5 5 5 3 3 3 4 4 4 4 4 4 4 4 5 6 7 8 8 8 7 7 7 7 6 7 9 11 12 14 15 14 13 15 16 11 8 8 6 11 13 11 14 16
8 9 10 14 17 19 21 24 26 27 27 28 30 31 33 35 36 35 34 34 32 29 28 27 25 23 23 23 21 22 25 23 21 19 17 15 13 11 10 10 8 7 6 5 4 4 3 1 2 3 4 5 5 6 7 8 9 10 11 11 10 10 9 9 9 9 9 9 11 12 13 15 18 19 20 19 15 15 12 7 11 15 11 15 21
7 8 9 10 11 14 19 22 24 26 28 30 32 32 33 36 36 35 35 35 33 31 30 29 27 25 25 25 23 22 24 24 22 20 18 18 16 14 14 13 11 10 8 7 6 5 3 2 3 4 5 7 8 9 9 10 11 12 13 13 13 12 11 10 10 10 10 11 12 13 14 15 18 20 21 20 19 21 18 11 14 16 11 13 19
7 8 10 11 11 15 21 25 26 28 32 34 35 35 35 35 36 36 36 36 35 33 32 31 29 27 26 26 25 24 24 24 23 20 20 20 18 16 15 15 14 13 11 9 9 8 6 5 5 6 6 8 10 11 10 10 11 12 13 14 13 13 13 12 12 11 11 11 12 13 14 15 17 18 20 21 20 20 18 15 14 13 12 14 16
8 9 11 13 15 20 24 27 29 32 35 36 36 36 35 35 37 37 36 36 36 35 34 33 31 29 28 28 28 26 25 25 23 21 21 22 20 17 16 15 15 14 12 11 10 10 8 7 7 7 7 8 10 9 9 9 11 13 13 13 13 13 14 15 14 14 14 13 13 14 14 15 16 17 19 20 20 21 21 20 15 9 8 10 10
6 9 11 12 16 22 26 28 32 34 35 36 35 35 36 37 38 38 37 37 38 37 36 35 32 30 28 29 29 27 25 25 24 23 23 22 21 19 17 17 16 14 13 13 11 10 9 9 9 8 7 8 8 8 7 8 10 12 14 15 14 14 15 15 15 16 16 16 15 15 16 16 16 16 17 18 20 21 22 23 20 13 9 6 5
2 3 7 9 13 19 24 28 31 31 33 35 36 38 40 40 39 38 37 37 38 38 38 36 34 32 30 29 29 27 26 25 25 24 23 22 22 20 18 18 18 16 14 14 12 11 10 10 9 8 7 8 7 7 7 8 10 13 14 15 16 16 16 15 15 15 16 17 17 17 17 17 17 16 16 16 17 20 22 23 24 21 16 8 5
7 5 2 4 10 18 24 28 31 33 36 38 40 41 42 42 41 40 38 37 38 39 39 38 36 34 32 31 30 29 27 26 26 24 22 22 23 21 20 20 20 17 16 14 13 12 11 10 9 8 8 8 7 7 8 10 12 14 15 16 16 17 18 17 16 16 16 17 19 19 19 19 19 18 17 17 17 18 19 21 24 25 24 17 11
8 6 6 6 6 12 20 26 30 33 36 39 41 40 40 40 41 42 42 41 40 40 39 38 38 36 35 33 32 30 28 27 25 24 22 23 23 22 21 21 20 18 16 15 13 12 11 10 9 8 8 8 8 8 9 11 12 13 14 14 16 17 18 19 18 18 18 18 20 21 21 21 21 21 20 20 19 19 19 19 21 24 27 27 22
6 5 5 6 6 9 13 17 23 29 32 34 35 35 37 39 39 41 42 40 40 40 40 39 38 37 36 35 33 30 29 27 26 24 24 24 24 23 22 21 19 18 16 15 14 13 11 10 9 8 8 8 9 10 10 11 11 12 12 12 13 14 16 18 19 20 20 21 21 22 23 23 23 24 23 22 22 21 21 21 21 22 24 26 28
7 7 7 6 5 5 9 11 13 18 23 26 29 33 36 38 38 39 38 38 38 38 39 40 39 38 37 36 34 32 30 28 26 25 25 24 24 23 22 20 18 16 15 14 13 12 10 9 9 9 9 9 10 9 9 10 11 11 11 12 12 12 14 16 18 20 20 21 21 22 24 24 23 24 24 24 24 23 23 23 22 22 23 23 24
8 9 9 8 9 8 8 13 14 13 16 22 27 29 31 32 35 37 36 37 38 39 40 40 39 38 38 37 34 32 30 28 27 26 25 24 24 23 21 19 17 15 14 13 13 11 9 9 10 10 10 9 8 8 9 10 10 10 10 10 10 12 13 15 17 18 20 20 20 22 24 25 23 23 24 24 24 24 24 25 25 23 24 25 23
8 9 7 6 8 12 11 14 17 16 15 19 22 23 24 27 31 35 37 39 40 40 41 40 39 38 37 36 34 32 30 29 27 26 26 25 24 22 20 18 16 14 14 13 11 9 9 9 10 9 8 7 7 8 9 9 10 11 11 12 13 14 15 16 17 18 19 19 20 22 23 24 23 23 24 24 24 24 23 24 26 25 24 25 24
10 9 8 8 9 10 13 15 16 17 17 18 20 22 25 26 27 28 32 39 44 43 40 37 37 36 35 34 33 32 31 30 28 27 26 24 23 21 19 17 15 14 13 11 10 9 9 10 9 8 7 7 7 8 9 10 12 14 15 16 17 17 17 18 20 20 19 19 20 21 22 23 22 23 24 25 24 23 22 22 24 26 25 25 24
11 11 11 11 11 9 11 15 13 14 17 20 24 25 28 30 28 23 19 22 28 35 39 38 35 34 33 33 33 32 31 31 30 28 26 24 22 20 17 15 14 13 12 10 10 10 10 9 8 7 7 6 7 9 10 12 14 15 16 17 17 18 19 19 19 19 19 19 20 21 22 22 22 22 24 24 24 23 23 23 24 25 25 25 25
9 10 9 9 9 8 11 16 17 15 14 15 22 26 27 29 29 26 22 18 18 20 27 33 34 33 32 33 33 32 32 31 29 27 25 23 21 18 16 14 13 12 11 10 10 9 9 8 7 7 7 7 8 9 11 13 14 15 15 16 17 18 19 19 19 19 19 20 20 21 22 22 22 22 23 24 24 24 25 25 24 24 25 24 25
8 8 8 9 9 9 11 16 19 19 20 17 16 23 27 28 26 27 29 29 25 21 22 25 28 30 31 32 32 32 31 30 28 26 24 21 19 17 14 13 12 11 11 10 9 9 8 8 7 7 8 9 9 11 13 15 16 17 17 17 17 18 19 18 19 19 19 20 20 21 22 22 22 22 23 24 25 25 24 24 24 24 24 24 26
7 8 8 8 9 9 11 15 19 20 21 21 18 17 24 30 33 33 32 31 30 28 25 25 26 27 28 29 29 29 29 28 27 24 22 20 18 15 13 12 12 11 11 10 9 9 8 8 9 10 10 10 11 13 15 17 19 20 20 20 20 20 21 20 20 20 20 20 21 21 22 22 23 23 23 23 23 23 23 24 25 25 25 26 27
8 8 8 8 8 8 10 15 19 21 22 23 22 18 17 21 27 30 32 31 31 32 30 27 26 26 25 24 24 25 26 25 24 23 21 19 16 14 13 12 12 11 10 10 9 9 9 10 11 11 10 10 12 14 17 19 21 21 21 22 22 23 24 24 23 22 22 23 23 23 23 24 24 25 25 26 27 27 27 28 27 26 26 27 27
8 8 7 7 7 7 9 14 17 21 23 24 25 25 20 17 18 21 26 29 30 32 32 29 27 27 25 23 23 23 24 24 24 22 20 18 15 13 12 12 12 11 10 10 9 9 11 12 11 11 11 11 13 16 18 20 21 21 22 23 24 25 25 25 26 25 25 25 25 25 25 25 26 27 27 28 29 30 31 31 32 31 29 28 28
7 7 7 7 8 8 9 12 15 19 23 23 25 27 23 19 20 21 25 30 31 32 34 32 31 32 31 27 24 24 24 24 24 22 20 17 14 12 12 12 11 11 10 9 9 10 11 11 10 9 11 13 15 17 19 20 21 22 23 24 24 25 26 27 27 27 27 27 27 26 26 26 26 27 27 27 28 29 30 30 32 32 32 32 31
7 7 7 7 8 8 9 12 15 18 21 23 24 26 25 20 21 24 24 29 32 32 34 34 34 35 37 33 29 27 27 26 24 22 19 16 14 13 12 12 12 11 9 9 9 9 8 7 7 9 12 15 16 18 19 21 22 22 23 23 24 25 26 27 28 27 28 28 28 28 27 27 27 27 27 28 29 29 29 30 30 32 32 33 34
6 7 7 7 7 8 10 14 16 16 18 23 25 25 27 26 20 20 23 29 33 33 33 33 32 33 35 34 32 31 30 28 25 22 18 15 14 12 12 12 11 9 8 8 7 5 4 6 10 13 15 16 18 19 20 21 22 23 23 24 24 25 27 28 28 28 29 29 29 29 29 29 28 28 28 28 29 30 30 30 30 31 33 34 34
6 7 6 6 8 12 15 16 17 16 17 21 25 27 29 27 18 12 14 19 26 32 33 32 31 33 34 35 35 36 33 29 25 21 17 15 13 12 11 11 9 7 7 6 3 3 6 9 12 14 15 17 19 21 22 23 23 24 25 25 26 27 28 29 30 29 29 30 30 30 30 29 28 28 28 28 28 29 30 31 31 31 32 33 32
7 7 7 8 11 15 18 20 21 22 22 21 23 28 31 26 15 11 11 8 13 21 30 32 32 33 35 37 39 39 35 30 26 21 17 14 12 12 11 10 8 7 6 4 4 6 8 10 13 15 18 20 23 24 25 25 25 25 26 27 28 29 30 31 30 30 30 30 30 29 29 29 28 28 27 27 28 29 30 32 33 33 33 33 33
7 8 8 11 14 15 17 21 25 28 29 27 25 27 30 27 15 14 17 13 9 13 20 26 28 29 31 36 39 38 34 30 25 20 17 15 13 12 11 10 8 6 5 5 6 6 8 11 14 16 20 23 25 27 27 27 27 27 27 28 30 30 31 30 30 30 30 30 29 28 28 29 29 28 28 27 28 30 32 33 34 35 36 37 37
11 12 14 15 17 17 18 21 25 28 31 32 30 28 30 27 16 16 20 19 19 18 20 22 25 26 27 31 34 34 31 27 23 19 17 15 13 12 11 9 7 6 6 7 6 7 10 13 13 15 19 23 25 27 27 27 27 27 28 29 30 30 30 30 30 30 29 29 29 29 29 30 30 30 29 29 29 29 32 34 34 35 35 35 37
14 16 17 17 17 19 20 22 25 29 31 32 31 28 27 27 19 19 22 22 24 23 23 26 30 32 34 33 32 30 28 24 20 18 15 13 12 10 10 8 6 7 8 7 8 10 11 11 11 14 19 23 25 27 27 27 27 28 28 30 30 30 29 29 30 30 30 30 30 30 30 30 31 31 30 30 30 30 33 34 33 34 34 33 34
16 17 18 20 20 21 24 24 23 28 31 30 30 28 25 25 20 20 24 24 25 24 23 26 30 32 35 34 31 29 26 23 19 16 14 13 11 9 8 7 7 9 10 10 12 12 9 8 9 15 20 23 26 28 27 27 28 28 28 29 29 29 29 29 29 30 29 29 30 30 31 31 33 32 31 31 31 31 33 35 34 33 33 32 31
18 19 20 22 23 22 24 25 25 28 30 28 28 27 25 24 20 22 27 27 29 31 30 29 29 29 31 31 29 26 23 21 19 16 13 12 9 7 7 8 10 12 13 13 14 12 7 6 9 16 21 23 26 28 27 27 28 28 28 28 28 28 28 29 30 30 30 30 30 30 30 31 32 32 32 32 32 32 34 36 36 35 33 31 30
20 22 22 23 24 23 24 26 28 29 29 28 27 25 24 24 20 23 30 32 36 36 33 32 32 31 31 30 27 24 21 18 18 16 13 10 9 8 9 12 13 14 15 15 14 10 6 6 12 17 20 22 25 26 26 26 27 27 27 27 28 28 28 30 32 32 32 32 32 31 32 32 33 33 34 34 34 34 34 36 38 38 37 36 34
23 24 24 23 24 24 24 26 28 28 29 28 26 24 23 22 20 23 29 36 40 40 37 35 34 33 32 30 27 24 21 18 16 14 12 11 11 10 11 13 14 15 16 14 11 8 7 9 14 17 19 22 24 25 25 26 27 27 27 26 27 28 29 30 32 32 32 33 34 34 35 35 35 36 38 38 38 38 37 38 40 40 39 39 39
22 24 25 24 23 23 25 27 28 28 28 26 22 20 18 18 18 19 25 33 38 39 38 36 35 34 33 29 25 22 20 17 15 14 13 12 11 10 10 13 15 15 15 13 9 9 10 12 16 17 19 21 24 25 25 26 27 27 26 26 27 29 29 30 32 34 34 35 37 37 38 38 38 39 40 40 40 40 40 40 41 40 40 40 40
23 26 26 24 23 23 24 26 27 27 26 22 18 15 14 17 19 20 26 34 37 37 37 35 34 34 31 26 23 21 19 18 16 14 12 10 8 9 11 13 15 15 13 12 11 11 13 14 16 18 19 21 24 25 26 28 28 27 26 27 28 29 30 31 34 36 36 37 38 39 40 40 40 41 41 41 41 41 41 41 41 40 40 40 40
24 26 25 24 23 23 23 24 24 24 20 15 11 10 13 20 23 26 31 35 37 38 38 36 33 30 27 25 23 20 19 18 15 13 10 8 7 9 10 12 14 14 13 13 13 14 15 15 16 18 19 22 24 26 27 29 28 27 26 27 28 30 31 33 34 36 37 38 40 41 42 43 43 43 43 43 43 43 43 43 42 41 40 40 38
22 23 25 24 22 22 20 18 18 17 10 5 5 8 17 24 26 29 33 36 37 37 36 35 32 28 26 25 23 20 18 17 15 11 8 7 7 7 7 9 12 14 14 15 15 16 16 16 16 17 19 23 25 27 28 29 28 27 27 27 29 31 32 33 35 37 38 39 40 41 41 41 41 41 41 41 40 40 39 39 40 41 41 39 37
21 23 25 23 20 17 14 12 14 14 6 5 6 8 17 25 26 28 34 37 38 37 35 34 32 30 26 24 22 20 17 14 13 10 8 7 5 3 5 8 12 14 15 16 17 18 18 16 16 17 18 23 26 27 28 30 29 28 28 28 30 32 33 34 35 36 37 37 38 39 39 39 39 39 39 39 39 38 36 35 35 36 38 38 36
22 24 25 21 17 13 11 12 15 15 9 8 8 7 15 22 24 29 34 35 35 35 34 32 31 28 23 19 19 19 15 12 11 10 7 5 3 3 5 7 9 11 13 16 18 19 19 16 15 16 19 22 25 27 29 31 31 30 30 30 31 32 33 33 34 36 37 37 37 38 37 36 36 35 35 35 35 35 34 34 33 33 34 35 36
22 25 23 18 14 12 12 15 18 17 14 13 10 8 16 21 25 31 34 32 33 34 32 29 26 23 20 18 17 15 12 11 13 11 8 5 2 3 4 5 6 9 12 15 16 18 18 15 13 15 18 21 25 28 31 33 32 30 29 30 31 32 34 35 35 36 36 36 34 33 31 31 30 29 29 28 28 28 29 30 31 32 31 32 33
23 23 20 16 14 14 16 19 21 19 15 13 11 13 19 23 28 34 35 34 35 33 30 27 23 20 19 18 16 13 11 13 14 11 7 4 2 3 3 3 6 9 12 14 16 18 17 14 14 16 19 21 26 30 34 33 31 29 28 29 31 33 34 34 33 33 32 30 28 26 25 25 25 25 24 24 23 23 24 25 27 29 31 31 31
21 19 16 15 14 15 18 19 16 10 9 16 21 22 22 23 28 34 35 35 34 32 29 27 25 21 19 17 16 15 15 14 12 9 6 3 2 4 3 3 7 11 13 15 17 19 18 15 15 18 20 23 27 32 34 32 30 29 29 30 32 33 33 31 29 29 27 25 22 21 21 22 23 23 23 22 22 20 21 23 24 25 28 30 31
Wind_Direction
182 177 176 174 174 173 170 166 165 167 170 172 171 171 168 164 163 162 160 159 162 166 169 172 172 169 166 158 142 132 130 126 124 132 143 150 169 177 180 185 178 166 154 136 125 127 142 162 197 223 226 163 136 247 247 246 245 245 245 240 231 230 239 245 233 214 219 224 211 212 220 224 232 231 228 229 230 230 229 234 239 238 237 238 241
168 173 178 176 174 171 166 164 166 169 172 174 174 174 173 170 168 166 165 166 167 172 176 180 185 181 172 167 157 140 127 122 121 120 112 102 139 164 162 171 183 162 159 103 91 94 89 91 81 76 92 121 110 47 317 280 268 263 263 258 240 233 237 240 235 221 214 222 213 226 234 229 230 228 228 234 236 235 230 230 235 239 240 240 242
158 166 171 174 175 170 166 168 171 173 174 176 177 176 176 176 174 171 171 170 170 175 182 186 188 182 171 165 158 146 135 130 126 125 120 106 121 142 152 159 167 156 135 92 87 92 84 85 82 70 68 76 78 51 17 351 327 305 289 273 259 254 248 237 235 229 226 233 218 228 247 228 230 231 230 234 238 239 235 232 234 237 241 243 243
166 168 169 173 175 171 171 174 175 174 173 177 179 178 180 181 179 179 178 174 172 178 188 189 183 174 166 160 155 151 147 145 139 137 146 156 140 144 170 184 211 170 148 117 97 92 70 61 71 62 61 60 55 48 37 23 3 348 340 311 275 265 257 233 223 221 222 229 211 175 255 205 226 234 231 234 236 241 241 238 237 237 238 241 244
172 173 173 172 176 179 180 179 176 175 177 179 181 182 184 185 183 183 182 177 175 177 182 180 172 165 159 154 154 155 155 158 160 159 163 175 177 178 197 217 72 139 155 156 126 104 78 48 256 272 32 50 43 43 37 30 16 357 350 341 316 289 274 247 229 222 220 224 217 190 109 355 250 223 221 236 237 240 243 241 240 238 237 238 242
177 172 173 175 181 184 183 181 178 179 182 183 185 187 188 187 186 186 184 180 178 176 177 176 170 166 163 161 161 162 166 172 175 172 172 179 188 196 189 118 96 111 147 169 162 133 114 89 153 211 209 210 30 36 30 27 28 17 4 348 341 333 314 283 258 244 235 234 228 218 213 241 285 300 177 245 243 241 244 244 243 241 239 239 240
177 170 172 178 182 184 185 185 184 184 186 185 186 189 189 189 188 188 186 183 180 178 181 183 178 175 176 177 176 174 173 176 181 178 175 181 186 192 174 136 110 95 112 133 136 138 138 125 133 158 185 211 245 292 10 23 31 25 20 10 358 351 343 327 311 291 269 260 246 234 232 231 241 251 229 249 263 247 245 246 247 244 242 242 242
171 172 175 181 184 186 188 189 189 188 187 185 187 191 191 191 190 189 189 186 183 183 188 191 189 186 186 185 184 184 179 175 179 180 175 175 175 173 166 156 146 120 113 123 138 166 182 206 245 241 238 275 290 281 328 349 360 2 1 7 2 359 360 347 336 333 306 287 274 261 255 246 248 257 258 242 184 228 259 253 252 249 245 245 244
170 177 180 184 188 189 190 190 190 189 185 186 190 192 193 192 191 190 191 190 187 188 193 197 196 192 189 186 185 188 184 176 178 180 174 171 169 168 163 165 171 157 140 134 145 166 174 162 13 32 18 3 334 313 313 321 334 342 341 347 351 352 358 350 340 339 324 306 295 285 277 268 264 264 259 247 226 230 266 265 259 259 256 251 246
169 179 182 186 189 191 191 189 189 189 188 189 191 191 192 192 191 192 194 193 191 191 196 196 196 194 190 187 186 187 184 178 178 181 178 175 174 172 167 171 179 177 178 175 173 176 121 88 74 70 57 42 27 6 346 332 330 331 335 337 338 340 340 342 341 333 324 314 301 287 277 271 266 261 250 244 240 242 248 258 266 266 266 263 256
163 174 185 190 193 193 190 187 188 189 190 189 189 190 191 192 193 195 195 195 194 194 196 196 195 196 193 192 192 191 188 183 180 181 181 179 180 179 174 175 177 181 188 191 196 195 153 115 88 76 55 36 21 6 352 341 332 324 325 328 330 334 333 330 328 323 322 317 307 292 276 266 259 257 253 244 232 231 242 254 260 260 263 264 263
161 162 179 187 189 190 188 188 188 187 188 189 189 190 191 192 194 196 195 195 195 195 196 198 197 198 196 196 197 194 192 190 186 186 187 187 185 181 179 182 184 187 190 192 197 196 179 129 58 39 22 12 358 344 329 320 316 314 315 319 325 330 331 328 324 321 317 313 314 308 295 281 266 260 259 252 241 238 240 245 254 256 260 262 262
168 156 168 174 178 181 183 187 188 187 189 191 192 192 191 193 195 196 196 196 196 196 197 199 200 200 198 199 200 197 195 196 195 196 196 195 191 184 184 188 191 196 199 202 206 207 216 265 319 336 347 348 343 338 331 324 319 316 314 314 317 321 324 327 325 324 319 314 315 314 310 301 288 277 269 259 251 246 241 240 251 252 250 259 262
178 162 164 171 177 179 180 184 186 189 192 193 193 194 193 194 196 198 198 197 196 198 198 200 202 203 201 202 204 202 201 203 203 205 204 200 197 192 192 192 194 201 207 211 212 211 221 250 283 299 315 327 333 336 337 338 333 326 320 315 312 311 311 314 319 320 316 314 317 317 313 307 302 296 284 269 260 254 246 240 248 251 249 257 262
179 173 174 177 179 179 181 184 188 191 194 194 195 194 194 195 198 200 200 197 197 198 199 201 204 204 203 205 207 208 208 207 208 212 210 203 200 199 199 198 200 204 207 210 211 212 228 251 267 275 293 314 327 333 333 334 332 328 324 318 313 309 303 303 309 315 316 315 317 318 314 307 305 305 298 287 274 265 255 247 249 254 252 254 260
184 181 180 182 180 180 182 185 190 193 194 194 194 194 195 197 199 201 201 199 198 199 200 202 204 205 204 206 209 211 211 210 210 211 208 206 204 203 202 201 202 203 202 205 210 219 238 252 258 266 284 306 318 322 319 319 321 322 321 318 314 311 308 305 305 309 314 316 315 315 314 309 309 310 309 305 292 278 266 257 255 255 258 260 257
302 219 186 181 180 184 187 189 191 192 193 195 195 195 196 198 199 200 202 201 200 200 202 203 203 204 205 206 208 210 209 209 209 206 206 207 207 205 203 201 201 203 201 204 211 220 233 243 250 261 278 294 301 304 309 311 312 312 310 310 310 308 308 309 308 309 311 313 313 313 314 310 311 315 314 315 309 296 282 269 261 255 252 254 257
7 340 290 208 189 190 191 193 195 193 193 196 197 198 198 198 199 199 201 202 201 202 202 203 203 203 204 205 207 210 211 210 209 208 207 205 205 204 202 201 201 203 203 204 210 216 225 235 243 258 272 279 281 286 299 307 310 310 306 304 302 301 302 303 305 307 308 311 310 309 309 307 308 311 310 310 312 312 303 286 271 259 250 246 250
28 0 318 285 242 212 200 196 197 195 196 198 198 199 198 199 200 199 202 204 203 203 203 204 204 203 205 207 208 210 213 213 212 210 207 203 203 201 200 201 201 202 203 204 209 215 220 227 238 255 264 267 273 281 292 300 306 308 307 305 302 300 301 301 301 303 304 307 306 304 304 303 303 306 306 305 305 310 315 308 293 274 257 248 245
37 18 318 282 265 249 229 212 202 199 200 201 200 199 198 200 200 200 202 203 203 203 203 204 205 205 206 207 208 211 213 213 212 210 208 205 204 202 201 202 202 201 205 208 212 215 220 230 243 252 257 264 275 283 291 298 304 307 306 306 304 301 301 301 302 302 302 302 303 304 303 300 301 303 303 303 302 301 306 311 310 298 279 260 245
20 23 1 331 309 264 241 237 229 215 209 205 202 202 201 201 201 201 201 201 202 203 203 204 206 206 207 206 206 209 211 212 212 211 211 208 206 206 205 206 206 205 208 212 215 220 230 245 250 253 262 270 276 283 293 299 301 303 300 297 296 296 296 298 300 300 301 303 304 305 303 303 304 304 302 301 299 298 299 302 306 308 302 288 261
7 16 12 353 340 317 258 237 237 232 221 213 208 207 206 203 201 201 201 201 203 204 204 206 207 207 207 206 205 207 209 211 211 210 211 208 206 207 208 209 209 210 213 218 225 235 248 255 255 259 266 269 275 287 294 295 296 298 298 294 294 297 297 296 297 298 299 300 301 300 300 302 305 305 303 302 300 298 297 298 301 304 305 303 289
9 16 9 1 355 340 312 268 243 227 222 221 214 210 209 208 206 203 201 201 204 207 207 206 207 208 208 205 203 205 207 208 208 208 207 206 205 206 208 211 211 213 220 226 234 248 258 258 258 259 261 265 278 290 293 296 301 305 306 304 303 303 300 298 298 298 298 297 296 295 295 299 302 303 302 301 302 300 297 296 297 299 301 302 301
5 8 1 6 12 357 338 310 266 229 214 216 215 211 208 209 214 215 209 205 205 205 205 205 206 207 207 204 202 203 205 205 205 206 204 203 204 205 208 211 213 217 224 231 241 252 254 252 253 255 261 275 289 299 307 313 315 316 314 313 312 310 305 302 301 299 298 295 293 292 292 295 297 298 298 299 300 301 300 297 294 294 297 300 302
8 7 5 6 7 3 356 341 303 248 221 210 206 209 210 208 211 219 226 225 217 208 203 202 204 205 204 203 201 202 205 204 204 204 203 203 203 205 208 210 214 220 226 234 241 244 245 245 247 253 267 285 300 310 317 318 319 319 318 317 316 313 309 306 303 299 296 293 291 290 290 292 292 292 293 295 297 297 297 297 294 291 293 296 300
17 12 10 4 359 360 6 3 347 318 289 242 212 209 214 213 210 210 216 228 238 230 213 203 200 201 202 201 200 202 203 204 204 204 203 204 205 206 209 213 218 224 227 231 234 235 236 238 245 261 279 293 304 312 315 315 315 317 319 319 318 315 311 306 302 297 293 290 288 288 289 289 288 287 288 291 293 294 294 293 293 292 291 293 296
21 17 14 5 357 356 4 8 360 347 334 308 255 225 219 217 215 212 210 211 215 223 223 212 202 199 201 200 200 202 203 204 205 205 204 206 206 208 213 218 222 225 226 228 231 233 234 242 264 285 296 301 306 312 313 314 315 316 318 318 317 317 313 306 301 297 294 291 287 286 286 285 284 284 284 286 288 290 290 289 290 292 291 292 293
22 20 15 6 358 353 357 1 358 354 347 333 305 260 231 223 221 217 211 206 201 201 207 211 206 200 200 201 201 201 203 204 204 204 205 204 205 209 214 219 223 226 229 234 237 239 250 272 293 299 300 300 303 306 309 312 315 315 315 313 312 311 309 305 301 297 294 292 290 288 286 284 283 282 282 283 284 285 286 287 287 288 289 289 290
16 12 6 1 356 350 351 354 353 351 348 341 330 308 272 247 235 225 213 203 196 191 191 196 198 195 195 200 203 202 202 202 203 202 201 201 204 207 211 217 227 231 235 241 245 256 281 299 303 299 296 295 298 303 308 312 313 313 312 311 309 307 306 304 301 297 293 290 288 287 285 284 283 282 281 280 280 280 281 282 283 284 285 285 286
4 359 353 350 346 343 346 350 351 349 345 341 336 325 303 272 254 237 218 206 196 187 183 185 188 187 190 198 201 200 200 200 200 199 198 199 201 204 212 222 230 236 242 249 260 283 301 304 299 292 291 295 302 307 310 311 311 312 311 310 307 305 304 303 300 298 295 292 289 286 284 283 282 283 282 281 279 278 277 276 276 276 277 278 280
350 348 343 337 336 339 343 346 347 343 338 334 334 330 314 278 252 238 219 206 199 190 182 183 185 185 188 196 199 199 199 198 199 199 197 197 199 206 218 227 234 242 250 259 279 299 301 296 294 296 304 312 316 316 316 314 314 314 311 308 305 303 302 300 298 296 294 292 291 288 286 284 283 282 282 282 282 280 278 275 273 271 270 270 271
338 336 333 331 330 333 335 334 336 336 333 329 328 328 322 296 256 239 222 205 198 191 185 184 183 182 184 187 192 196 196 195 197 198 195 194 201 211 220 231 239 244 255 274 292 297 293 297 313 324 327 326 323 320 319 318 317 315 312 308 304 301 300 298 295 293 292 291 290 289 287 285 284 283 282 282 282 280 279 277 274 272 269 266 265
322 317 319 321 317 317 320 320 323 326 327 327 324 320 321 313 282 246 226 208 195 187 185 184 181 179 176 175 180 185 188 192 195 193 191 192 201 215 226 232 235 240 262 279 282 283 308 333 336 334 330 325 322 321 321 320 318 315 313 308 303 300 298 295 293 291 290 289 288 288 286 284 283 283 282 282 281 280 279 278 276 273 270 267 264
302 298 300 304 307 312 315 315 318 319 320 322 320 316 316 314 297 248 219 211 197 186 182 182 180 177 173 172 176 180 183 187 187 183 185 194 206 221 226 222 223 239 255 255 253 301 327 331 329 329 327 325 325 323 322 321 319 317 313 308 303 299 296 293 291 289 287 286 286 285 284 283 283 283 282 282 281 280 280 279 277 275 271 269 266
292 292 293 296 302 309 314 317 317 317 316 314 313 313 314 311 286 218 182 197 215 194 180 177 177 176 175 174 175 176 176 176 176 177 186 197 207 213 209 206 216 230 232 235 270 300 314 324 331 334 334 332 330 327 325 323 320 318 314 310 305 301 296 293 290 288 286 285 283 282 282 282 283 283 282 281 280 280 279 278 276 274 271 269 267
277 275 277 286 294 298 305 311 312 312 311 308 305 306 308 307 282 210 179 175 202 198 179 172 170 171 174 173 170 168 169 168 168 176 187 194 198 198 197 201 207 212 224 248 271 292 316 330 336 340 339 336 333 330 327 324 321 318 314 311 308 303 298 293 290 288 286 283 281 280 280 280 281 281 282 280 280 279 278 276 274 272 271 269 266
275 276 277 282 288 291 296 302 304 305 304 301 300 300 301 300 276 212 187 172 171 183 185 174 165 167 174 171 164 162 163 163 166 177 185 188 189 189 190 193 198 214 232 248 270 301 320 328 335 341 340 338 336 335 330 325 321 318 314 312 309 304 299 293 290 288 285 282 280 278 278 279 278 279 279 279 279 277 275 274 272 271 270 268 266
281 283 285 286 288 290 295 297 297 298 297 294 293 294 298 296 269 213 187 172 169 179 186 178 173 176 176 168 162 161 162 163 170 179 181 179 178 180 186 194 213 233 240 256 280 296 309 321 333 340 340 338 336 335 332 324 319 317 314 312 310 305 300 295 292 289 285 282 280 278 277 277 276 277 277 277 276 275 273 271 270 270 269 265 264
288 289 289 292 295 295 296 297 293 292 293 291 289 289 291 289 262 207 182 175 173 176 183 182 178 175 168 162 161 163 164 167 172 175 174 170 170 177 191 211 240 249 253 265 273 279 294 314 328 338 342 340 334 331 329 323 318 315 313 312 310 306 301 297 294 291 287 284 281 279 278 277 276 276 275 274 273 271 269 267 266 267 266 264 263
294 296 295 297 298 296 295 296 294 292 292 290 287 285 284 280 252 198 178 177 176 178 183 178 169 163 160 159 161 165 168 169 168 165 162 161 166 182 209 235 250 252 254 260 261 266 285 313 329 340 344 341 335 330 326 322 317 314 312 310 308 304 301 299 296 293 290 286 283 280 278 277 276 275 274 274 273 270 267 266 263 261 260 263 265
294 297 300 299 296 292 289 290 291 291 292 289 283 279 276 271 245 198 182 178 175 174 172 163 158 160 160 160 164 169 169 164 159 157 156 164 183 206 226 240 246 246 248 252 254 259 280 313 326 334 338 338 336 330 325 321 317 313 310 308 305 302 300 299 296 293 290 287 284 281 280 277 276 275 274 274 272 269 266 264 261 258 258 260 263
298 300 300 296 292 288 286 287 288 288 289 285 278 274 269 258 235 205 190 179 170 165 162 160 162 164 161 161 165 164 158 152 151 155 163 179 197 212 228 239 243 243 245 246 249 259 276 297 313 323 329 333 333 330 325 322 318 313 309 307 303 300 300 298 295 291 288 286 284 282 281 280 277 276 275 273 271 269 265 263 261 260 260 259 259
300 300 298 294 289 285 283 284 284 287 288 282 272 268 258 234 216 203 186 172 165 161 159 160 163 161 158 158 158 152 149 152 156 163 177 190 200 213 232 243 243 241 241 240 249 266 274 286 301 312 322 329 331 330 327 324 320 314 310 307 303 300 299 295 292 289 288 287 285 283 282 282 279 277 276 273 271 268 265 262 262 262 262 260 258
296 295 294 291 284 281 282 283 282 285 285 277 268 266 240 205 191 182 170 164 158 154 151 151 153 154 152 149 148 150 154 159 164 172 183 190 202 222 238 244 240 237 237 243 256 268 270 279 292 302 316 328 330 328 328 327 322 315 310 307 304 300 298 295 292 290 288 287 286 285 284 282 280 277 275 272 270 267 264 262 260 260 260 259 256
292 293 293 289 283 280 280 280 280 282 280 269 264 255 215 189 176 166 159 153 145 141 142 145 146 147 146 146 150 155 156 160 168 177 182 189 212 232 241 243 238 235 240 250 260 265 266 274 285 294 310 324 328 327 328 328 323 315 309 307 304 301 299 297 294 292 289 288 287 286 285 283 280 277 275 272 269 266 263 260 258 256 255 255 252
292 294 293 290 284 278 276 278 285 289 280 235 223 213 188 174 166 159 153 146 142 141 142 143 144 147 150 150 152 156 159 165 169 169 179 200 221 239 249 247 240 238 245 254 261 262 262 269 282 293 308 322 326 326 327 327 322 315 310 308 305 304 303 301 297 294 292 291 290 288 286 283 280 277 274 270 267 265 263 260 257 253 250 249 247
292 293 293 289 278 270 275 283 289 295 281 195 208 201 170 156 152 152 148 144 145 146 143 143 148 151 151 152 156 157 157 160 163 167 186 202 210 236 249 247 242 241 248 256 260 260 260 267 282 296 312 321 322 322 325 326 323 317 312 310 309 307 306 304 301 299 296 294 292 290 288 284 280 277 274 270 266 263 261 257 253 249 244 242 242
290 292 290 283 270 267 282 285 283 288 269 219 217 192 161 147 140 145 146 143 142 141 140 144 150 150 149 153 157 152 144 144 156 165 168 164 178 226 240 250 253 252 258 263 264 263 265 272 287 302 313 317 315 317 323 326 324 319 316 314 312 310 308 307 304 302 300 298 296 293 289 285 281 277 273 269 264 260 256 252 247 243 239 237 237
287 287 283 275 267 271 284 282 281 281 264 247 245 206 173 159 149 151 151 145 140 139 140 143 148 151 151 148 144 143 144 147 148 143 126 109 131 222 232 256 269 270 275 278 277 277 278 282 294 306 310 308 306 314 325 327 324 322 320 318 315 313 311 309 308 307 306 303 299 294 288 283 279 274 270 266 261 255 251 246 241 238 236 234 232
283 283 280 273 271 279 284 278 274 270 254 235 218 193 179 168 159 156 150 142 140 141 141 141 144 148 149 143 139 142 147 141 134 129 123 122 178 204 204 254 285 288 288 289 289 290 290 289 295 305 310 308 308 317 327 328 325 324 324 322 320 318 316 315 315 316 313 307 300 295 289 286 282 277 271 266 259 250 243 239 236 233 230 229 229
281 282 278 270 273 285 286 272 259 243 194 169 167 175 178 167 155 149 145 143 144 143 141 141 142 144 144 141 135 131 126 120 116 112 107 114 173 193 204 269 297 301 301 300 298 296 292 288 290 298 308 314 319 325 329 328 328 328 328 327 325 324 322 322 323 323 317 308 304 302 299 299 296 288 277 268 261 251 240 235 234 231 227 225 225